星链-35187(STARLINK-35187)

导读 | 豆包AI

STARLINK-35187是美国SpaceX星链星座的卫星,于2025年9月6日发射。星链星座旨在构建全球卫星互联网,为全球偏远地区、海陆空交通及网络未覆盖区域提供高速低延迟宽带服务。该卫星延续星链星座设计,运行于近地轨道,是美国持续扩展星链规模的组成部分,助力完善全球卫星互联网覆盖布局。

Basic Information
目录编号:
65521
目录名称:
STARLINK-35187
国际标识:
2025-200B
轨道中心:
EARTH
卫星名称:
星链-35187
卫星全名:
星链-35187(STARLINK-35187)
卫星状态:
在轨 (已飞行261 天)
发射日期:
2025-09-06 UTC
国别 :
美国 (US)
星等 :
--
Orbit Information
数据来源 国际轨道数据 AOE轨道数据
星历时间 2026-05-25T10:57:47+0800
10小时前
查看轨道信息
2026-05-19T00:00:00+0800
6天前
查看轨道信息
半长轴 6927.627km 6927.647km
偏心率 0.0002054 0.0001803
轨道倾角 97.450° 97.475°
近地点辐角 115.697° 124.339°
升交点赤经 214.798° 208.553°
平近点角 244.447° 179.823°
近地点 548.067km 548.26km
远地点 550.913km 550.76km
周期 95.639分钟 95.640分钟
每日圈数 15.056569 15.056506
Detailed Information
固有亮度:
5
最大亮度:
2.5
卫星平台:
Starlink V1.0
覆盖范围:
全球
运营商:
太空探索技术公司
运营商所在国:
美国
制造商(研发单位):
太空探索技术公司
制造商所在国:
美国
使用方式:
暂无
Satellite Introduction
Starlink 计划是 SpaceX 推出的全球卫星互联网项目,通过发射低轨道卫星,为全球尤其是偏远地区提供高速、低延迟的互联网服务。自 2019 年起,Starlink 已部署数千颗卫星,旨在缩小全球数字鸿沟,推动互联网普及。该项目还为军事、航空等行业提供通信支持,带来广泛经济效益。
2D Orbit Map
3D Orbit Map
Orbit Altitude Analysis Chart
Orbit Inclination Analysis Chart
Orbit Comprehensive Analysis Chart
View Comprehensive Chart